Time,TemperatureF,DewpointF,PressureIn,WindDirection,WindDirectionDegrees,WindSpeedMPH,WindSpeedGustMPH,Humidity,HourlyPrecipIn,Conditions,Clouds,dailyrainin,SolarRadiationWatts/m^2,SoftwareType,DateUTC
2013-04-02 00:02:00,49.0,49.0,-100.00,ENE,66,3.0,6.0,100,0.00,,,0.01,0.000000,,2013-04-02 07:02:00,
2013-04-02 00:12:00,49.0,49.0,-100.00,ENE,66,3.0,6.0,100,0.00,,,0.01,0.000000,,2013-04-02 07:12:00,
2013-04-02 00:22:00,49.0,49.0,-100.00,ENE,66,3.0,6.0,100,0.00,,,0.01,0.000000,,2013-04-02 07:22:00,
2013-04-02 00:52:00,49.0,49.0,-100.00,ENE,71,1.0,4.0,100,0.00,,,0.01,0.000000,,2013-04-02 07:52:00,
2013-04-02 01:02:00,49.0,49.0,-100.00,ENE,71,1.0,4.0,100,0.00,,,0.01,0.000000,,2013-04-02 08:02:00,
2013-04-02 01:12:00,49.0,49.0,-100.00,ENE,71,1.0,4.0,100,0.00,,,0.01,0.000000,,2013-04-02 08:12:00,
2013-04-02 01:22:00,49.0,49.0,-100.00,ENE,71,1.0,4.0,100,0.00,,,0.01,0.000000,,2013-04-02 08:22:00,
2013-04-02 01:52:00,49.0,49.0,-100.00,NNW,339,3.0,5.0,100,0.00,,,0.01,0.000000,,2013-04-02 08:52:00,
2013-04-02 02:02:00,49.0,49.0,-100.00,NNW,339,3.0,5.0,100,0.00,,,0.01,0.000000,,2013-04-02 09:02:00,
2013-04-02 02:12:00,49.0,49.0,-100.00,NNW,339,3.0,5.0,100,0.00,,,0.01,0.000000,,2013-04-02 09:12:00,
2013-04-02 02:22:00,49.0,49.0,-100.00,NNW,339,3.0,5.0,100,0.00,,,0.01,0.000000,,2013-04-02 09:22:00,
2013-04-02 02:52:00,48.0,48.0,-100.00,North,9,2.0,4.0,100,0.00,,,0.01,0.000000,,2013-04-02 09:52:00,
2013-04-02 03:03:00,48.0,48.0,-100.00,North,9,2.0,4.0,100,0.00,,,0.01,0.000000,,2013-04-02 10:03:00,
2013-04-02 03:13:00,48.0,48.0,-100.00,North,9,2.0,4.0,100,0.00,,,0.01,0.000000,,2013-04-02 10:13:00,
2013-04-02 03:23:00,48.0,48.0,-100.00,North,9,2.0,4.0,100,0.00,,,0.01,0.000000,,2013-04-02 10:23:00,
2013-04-02 03:52:00,48.0,48.0,-100.00,NNE,22,2.0,4.0,100,0.00,,,0.01,0.000000,,2013-04-02 10:52:00,
2013-04-02 04:02:00,48.0,48.0,-100.00,NNE,22,2.0,4.0,100,0.00,,,0.01,0.000000,,2013-04-02 11:02:00,
2013-04-02 04:12:00,48.0,48.0,-100.00,NNE,22,2.0,4.0,100,0.00,,,0.01,0.000000,,2013-04-02 11:12:00,
2013-04-02 04:22:00,48.0,48.0,-100.00,NNE,22,2.0,4.0,100,0.00,,,0.01,0.000000,,2013-04-02 11:22:00,
2013-04-02 04:52:00,47.0,47.0,-100.00,SSW,211,3.0,5.0,100,0.00,,,0.01,0.000000,,2013-04-02 11:52:00,
2013-04-02 05:02:00,47.0,47.0,-100.00,SSW,211,3.0,5.0,100,0.00,,,0.01,0.000000,,2013-04-02 12:02:00,
2013-04-02 05:11:00,47.0,47.0,-100.00,SSW,211,3.0,5.0,100,0.00,,,0.01,0.000000,,2013-04-02 12:11:00,
2013-04-02 05:22:00,47.0,47.0,-100.00,SSW,211,3.0,5.0,100,0.00,,,0.01,0.000000,,2013-04-02 12:22:00,
2013-04-02 05:52:00,45.0,45.0,-100.00,NE,56,4.0,6.0,100,0.00,,,0.01,0.000000,,2013-04-02 12:52:00,
2013-04-02 06:01:00,45.0,45.0,-100.00,NE,56,4.0,6.0,100,0.00,,,0.01,0.000000,,2013-04-02 13:01:00,
2013-04-02 06:12:00,45.0,45.0,-100.00,NE,56,4.0,6.0,100,0.00,,,0.01,0.000000,,2013-04-02 13:12:00,
2013-04-02 06:22:00,45.0,45.0,-100.00,NE,56,4.0,6.0,100,0.00,,,0.01,0.000000,,2013-04-02 13:22:00,
2013-04-02 06:52:00,45.0,45.0,-100.00,NE,53,5.0,6.0,100,0.00,,,0.01,0.000000,,2013-04-02 13:52:00,
2013-04-02 07:02:00,45.0,45.0,-100.00,NE,53,5.0,6.0,100,0.00,,,0.01,0.000000,,2013-04-02 14:02:00,
2013-04-02 07:12:00,45.0,45.0,-100.00,NE,53,5.0,6.0,100,0.00,,,0.01,0.000000,,2013-04-02 14:12:00,
2013-04-02 07:22:00,45.0,45.0,-100.00,NE,53,5.0,6.0,100,0.00,,,0.01,0.000000,,2013-04-02 14:22:00,
2013-04-02 07:52:00,45.0,45.0,-100.00,WSW,247,4.0,6.0,100,0.00,,,0.01,8.000000,,2013-04-02 14:52:00,
2013-04-02 08:02:00,45.0,45.0,-100.00,WSW,247,4.0,6.0,100,0.00,,,0.01,8.000000,,2013-04-02 15:02:00,
2013-04-02 08:11:00,45.0,45.0,-100.00,WSW,247,4.0,6.0,100,0.00,,,0.01,8.000000,,2013-04-02 15:11:00,
2013-04-02 08:22:00,45.0,45.0,-100.00,WSW,247,4.0,6.0,100,0.00,,,0.01,8.000000,,2013-04-02 15:22:00,
2013-04-02 08:57:00,47.0,47.0,-100.00,SSW,210,2.0,5.0,100,0.00,,,0.01,110.000000,,2013-04-02 15:57:00,
2013-04-02 09:03:00,47.0,47.0,-100.00,SSW,210,2.0,5.0,100,0.00,,,0.01,110.000000,,2013-04-02 16:03:00,
2013-04-02 09:13:00,47.0,47.0,-100.00,SSW,210,2.0,5.0,100,0.00,,,0.01,110.000000,,2013-04-02 16:13:00,
2013-04-02 09:23:00,47.0,47.0,-100.00,SSW,210,2.0,5.0,100,0.00,,,0.01,110.000000,,2013-04-02 16:23:00,
2013-04-02 09:53:00,48.0,48.0,-100.00,WSW,238,3.0,6.0,100,0.00,,,-99.99,160.000000,,2013-04-02 16:53:00,
2013-04-02 10:04:00,48.0,48.0,-100.00,WSW,238,3.0,6.0,100,0.00,,,-99.99,160.000000,,2013-04-02 17:04:00,
2013-04-02 10:12:00,48.0,48.0,-100.00,WSW,238,3.0,6.0,100,0.00,,,-99.99,160.000000,,2013-04-02 17:12:00,
2013-04-02 10:24:00,48.0,48.0,-100.00,WSW,238,3.0,6.0,100,0.00,,,-99.99,160.000000,,2013-04-02 17:24:00,
2013-04-02 10:55:00,50.0,50.0,-100.00,NW,311,3.0,7.0,100,0.00,,,0.01,165.000000,,2013-04-02 17:55:00,
2013-04-02 11:03:00,50.0,50.0,-100.00,NW,311,3.0,7.0,100,0.00,,,0.01,165.000000,,2013-04-02 18:03:00,
2013-04-02 11:12:00,50.0,50.0,-100.00,NW,311,3.0,7.0,100,0.00,,,0.01,165.000000,,2013-04-02 18:12:00,
2013-04-02 11:22:00,50.0,50.0,-100.00,NW,311,3.0,7.0,100,0.00,,,0.01,165.000000,,2013-04-02 18:22:00,
2013-04-02 11:55:00,54.0,54.0,-100.00,West,274,4.0,8.0,100,0.00,,,0.01,452.000000,,2013-04-02 18:55:00,
2013-04-02 12:02:00,54.0,54.0,-100.00,West,274,4.0,8.0,100,0.00,,,0.01,452.000000,,2013-04-02 19:02:00,
2013-04-02 12:12:00,54.0,54.0,-100.00,West,274,4.0,8.0,100,0.00,,,0.01,452.000000,,2013-04-02 19:12:00,
2013-04-02 12:22:00,54.0,54.0,-100.00,West,274,4.0,8.0,100,0.00,,,0.01,452.000000,,2013-04-02 19:22:00,
2013-04-02 12:55:00,59.0,55.0,-100.00,WSW,247,6.0,9.0,88,0.00,,,0.01,585.000000,,2013-04-02 19:55:00,
2013-04-02 13:03:00,59.0,55.0,-100.00,WSW,247,6.0,9.0,88,0.00,,,0.01,585.000000,,2013-04-02 20:03:00,
2013-04-02 13:12:00,59.0,55.0,-100.00,WSW,247,6.0,9.0,88,0.00,,,0.01,585.000000,,2013-04-02 20:12:00,
2013-04-02 13:21:00,59.0,55.0,-100.00,WSW,247,6.0,9.0,88,0.00,,,0.01,585.000000,,2013-04-02 20:21:00,
2013-04-02 13:54:00,62.0,57.0,-100.00,SSW,203,8.0,12.0,83,0.00,,,0.01,719.000000,,2013-04-02 20:54:00,
2013-04-02 14:03:00,62.0,57.0,-100.00,SSW,203,8.0,12.0,83,0.00,,,0.01,719.000000,,2013-04-02 21:03:00,
2013-04-02 14:12:00,62.0,57.0,-100.00,SSW,203,8.0,12.0,83,0.00,,,0.01,719.000000,,2013-04-02 21:12:00,
2013-04-02 14:22:00,62.0,57.0,-100.00,SSW,203,8.0,12.0,83,0.00,,,0.01,719.000000,,2013-04-02 21:22:00,
2013-04-02 14:55:00,64.0,56.0,-100.00,SSW,195,7.0,14.0,75,0.00,,,0.01,694.000000,,2013-04-02 21:55:00,
2013-04-02 15:03:00,64.0,56.0,-100.00,SSW,195,7.0,14.0,75,0.00,,,0.01,694.000000,,2013-04-02 22:03:00,
2013-04-02 15:13:00,64.0,56.0,-100.00,SSW,195,7.0,14.0,75,0.00,,,0.01,694.000000,,2013-04-02 22:13:00,
2013-04-02 15:23:00,64.0,56.0,-100.00,SSW,195,7.0,14.0,75,0.00,,,0.01,694.000000,,2013-04-02 22:23:00,
2013-04-02 15:53:00,64.0,56.0,-100.00,SSW,206,11.0,15.0,76,0.00,,,0.00,621.000000,,2013-04-02 22:53:00,
2013-04-02 16:02:00,64.0,56.0,-100.00,SSW,206,11.0,15.0,76,0.00,,,0.00,621.000000,,2013-04-02 23:02:00,
2013-04-02 16:12:00,64.0,56.0,-100.00,SSW,206,11.0,15.0,76,0.00,,,0.00,621.000000,,2013-04-02 23:12:00,
2013-04-02 16:23:00,64.0,56.0,-100.00,SSW,206,11.0,15.0,76,0.00,,,0.00,621.000000,,2013-04-02 23:23:00,
2013-04-02 16:54:00,63.0,53.0,-100.00,SSW,197,8.0,13.0,71,0.00,,,0.00,497.000000,,2013-04-02 23:54:00,
2013-04-02 17:03:00,63.0,53.0,-100.00,SSW,197,8.0,13.0,71,0.00,,,0.00,497.000000,,2013-04-03 00:03:00,
2013-04-02 17:12:00,63.0,53.0,-100.00,SSW,197,8.0,13.0,71,0.00,,,0.00,497.000000,,2013-04-03 00:12:00,
2013-04-02 17:22:00,63.0,53.0,-100.00,SSW,197,8.0,13.0,71,0.00,,,0.00,497.000000,,2013-04-03 00:22:00,
2013-04-02 17:55:00,62.0,54.0,-100.00,SSW,193,9.0,14.0,75,0.00,,,0.00,436.000000,,2013-04-03 00:55:00,
2013-04-02 18:03:00,62.0,54.0,-100.00,SSW,193,9.0,14.0,75,0.00,,,0.00,436.000000,,2013-04-03 01:03:00,
2013-04-02 18:12:00,62.0,54.0,-100.00,SSW,193,9.0,14.0,75,0.00,,,0.00,436.000000,,2013-04-03 01:12:00,
2013-04-02 18:21:00,62.0,54.0,-100.00,SSW,193,9.0,14.0,75,0.00,,,0.00,436.000000,,2013-04-03 01:21:00,
2013-04-02 18:53:00,60.0,54.0,-100.00,South,176,7.0,12.0,81,0.00,,,0.00,240.000000,,2013-04-03 01:53:00,
2013-04-02 19:03:00,60.0,54.0,-100.00,South,176,7.0,12.0,81,0.00,,,0.00,240.000000,,2013-04-03 02:03:00,
2013-04-02 19:12:00,60.0,54.0,-100.00,South,176,7.0,12.0,81,0.00,,,0.00,240.000000,,2013-04-03 02:12:00,
2013-04-02 19:22:00,60.0,54.0,-100.00,South,176,7.0,12.0,81,0.00,,,0.00,240.000000,,2013-04-03 02:22:00,
2013-04-02 19:53:00,54.0,53.0,-100.00,South,179,6.0,12.0,97,0.00,,,0.00,77.000000,,2013-04-03 02:53:00,
2013-04-02 20:13:00,54.0,53.0,-100.00,South,179,6.0,12.0,97,0.00,,,0.00,77.000000,,2013-04-03 03:13:00,
2013-04-02 20:22:00,54.0,53.0,-100.00,South,179,6.0,12.0,97,0.00,,,0.00,77.000000,,2013-04-03 03:22:00,
2013-04-02 20:54:00,49.0,49.0,-100.00,SE,143,4.0,10.0,100,0.00,,,0.00,2.000000,,2013-04-03 03:54:00,
2013-04-02 21:03:00,49.0,49.0,-100.00,SE,143,4.0,10.0,100,0.00,,,0.00,2.000000,,2013-04-03 04:03:00,
2013-04-02 21:12:00,49.0,49.0,-100.00,SE,143,4.0,10.0,100,0.00,,,0.00,2.000000,,2013-04-03 04:12:00,
2013-04-02 21:23:00,49.0,49.0,-100.00,SE,143,4.0,10.0,100,0.00,,,0.00,2.000000,,2013-04-03 04:23:00,
2013-04-02 21:53:00,48.0,48.0,-100.00,South,173,4.0,8.0,100,0.00,,,0.00,0.000000,,2013-04-03 04:53:00,
2013-04-02 22:02:00,48.0,48.0,-100.00,South,173,4.0,8.0,100,0.00,,,0.00,0.000000,,2013-04-03 05:02:00,
2013-04-02 22:12:00,48.0,48.0,-100.00,South,173,4.0,8.0,100,0.00,,,0.00,0.000000,,2013-04-03 05:12:00,
2013-04-02 22:22:00,48.0,48.0,-100.00,South,173,4.0,8.0,100,0.00,,,0.00,0.000000,,2013-04-03 05:22:00,
2013-04-02 22:52:00,48.0,48.0,-100.00,SE,144,4.0,9.0,100,0.00,,,-99.99,0.000000,,2013-04-03 05:52:00,
2013-04-02 23:02:00,48.0,48.0,-100.00,SE,144,4.0,9.0,100,0.00,,,-99.99,0.000000,,2013-04-03 06:02:00,
2013-04-02 23:12:00,48.0,48.0,-100.00,SE,144,4.0,9.0,100,0.00,,,-99.99,0.000000,,2013-04-03 06:12:00,
2013-04-02 23:22:00,48.0,48.0,-100.00,SE,144,4.0,9.0,100,0.00,,,-99.99,0.000000,,2013-04-03 06:22:00,
2013-04-02 23:52:00,47.0,47.0,-100.00,South,175,3.0,7.0,100,0.00,,,0.00,0.000000,,2013-04-03 06:52:00,